Flag for Turkey Weather past 2 weeks in Istanbul, Turkey

Now
66 °F

Partly cloudy.


Feels Like: 66 °F
Forecast: 69 / 73 °F
Wind: 10 mph from North

Location: Istanbul Ataturk Airport

Current Time: Sep 18, 2014 at 5:19:30 AM

Latest Report: Sep 18, 2014 at 4:50 AM


Visibility: N/A

Pressure: 29.92 "Hg

Humidity: 78%

Dew point: 59 °F

Location of IstanbulLocation

Historic Weather in Istanbul — Graph

°F

Istanbul temperature yesterday

Maximum temperature yesterday: 77 °F (at 11:20 AM)
Minimum temperature yesterday: 64 °F (at 7:20 PM)
Average temperature yesterday: 72 °F

Past Weeks' High & Low Weather Summary

 TemperatureHumidityPressure
High88 °F (Sep 3, 2:20 PM)94% (Sep 9, 6:20 AM)30.04 "Hg (Sep 9, 6:20 AM)
Low64 °F (Sep 17, 7:20 PM)20% (Sep 10, 2:20 PM)29.68 "Hg (Sep 6, 4:20 AM)
Average75 °F68%29.88 "Hg
* Reported Sep 3 3:20 AM — Sep 18 3:50 AM, Istanbul, Weather by CustomWeather, © 2014

Note: Actual official high and low records may vary slightly from our data, if they occured in-between our weather recording intervals... More about our weather records

Advertising

Istanbul weather history for previous 24 hours

 ConditionsComfort  
Time TempWeatherWind HumidityBarometerVisibility
3:50 AM
Sep 18
68 °FPartly cloudy.13 mph69%29.92 "HgN/A
3:20 AM66 °FPartly cloudy.10 mph83%29.92 "HgN/A
2:50 AM66 °FPartly cloudy.6 mph83%29.92 "HgN/A
2:20 AM66 °FPartly cloudy.9 mph83%29.92 "HgN/A
1:50 AM66 °FSprinkles. Partly cloudy.13 mph83%29.92 "HgN/A
1:20 AM68 °FPartly cloudy.7 mph78%29.92 "HgN/A
12:50 AM66 °FPartly cloudy.9 mph83%29.92 "HgN/A
12:20 AM68 °FSprinkles. Partly cloudy.7 mph73%29.92 "HgN/A
11:50 PM
Sep 17
68 °FSprinkles. Partly cloudy.14 mph78%29.92 "HgN/A
11:20 PM68 °FPartly cloudy.13 mph78%29.92 "HgN/A
10:50 PM68 °FPartly cloudy.9 mph78%29.92 "HgN/A
10:20 PM70 °FPartly cloudy.8 mph73%29.92 "HgN/A
9:50 PM68 °FPartly cloudy.8 mph78%29.92 "HgN/A
9:20 PM68 °FPartly cloudy.10 mph83%29.92 "HgN/A
8:50 PM66 °FPartly cloudy.10 mph88%29.92 "HgN/A
8:20 PM66 °FPartly cloudy.10 mph88%29.92 "Hg4 mi
7:50 PM66 °FSprinkles. Broken clouds.9 mph88%29.89 "Hg4 mi
7:20 PM64 °FRain showers. Partly sunny.10 mph94%29.92 "Hg2 mi
6:50 PM66 °FRain showers. Partly sunny.17 mph88%29.92 "Hg2 mi
6:20 PM66 °FSprinkles. Partly sunny.21 mph88%29.92 "Hg2 mi
5:50 PM68 °FSprinkles. Partly sunny.20 mph83%29.89 "Hg4 mi
5:20 PM70 °FBroken clouds.21 mph73%29.89 "HgN/A
4:50 PM75 °FBroken clouds.15 mph57%29.89 "HgN/A
4:20 PM75 °FBroken clouds.17 mph57%29.89 "HgN/A
3:50 PM75 °FScattered clouds.18 mph47%29.89 "HgN/A
3:20 PM75 °FScattered clouds.15 mph44%29.89 "HgN/A
2:50 PM77 °FScattered clouds.18 mph42%29.89 "HgN/A
2:20 PM75 °FScattered clouds.17 mph54%29.89 "HgN/A
1:50 PM77 °FScattered clouds.18 mph47%29.89 "HgN/A
1:20 PM77 °FScattered clouds.18 mph47%29.89 "HgN/A
12:50 PM77 °FScattered clouds.18 mph47%29.89 "HgN/A
12:20 PM77 °FScattered clouds.16 mph47%29.89 "HgN/A
11:50 AM75 °FScattered clouds.16 mph54%29.89 "HgN/A
11:20 AM77 °FScattered clouds.16 mph51%29.89 "HgN/A
10:50 AM75 °FScattered clouds.18 mph54%29.89 "HgN/A
10:20 AM75 °FScattered clouds.15 mph57%29.89 "HgN/A
9:50 AM75 °FScattered clouds.16 mph57%29.89 "HgN/A
9:20 AM73 °FScattered clouds.17 mph61%29.89 "HgN/A
8:50 AM73 °FScattered clouds.16 mph61%29.89 "HgN/A
8:20 AM73 °FScattered clouds.14 mph61%29.89 "HgN/A
7:50 AM73 °FScattered clouds.12 mph61%29.89 "HgN/A
7:20 AM72 °FPassing clouds.12 mph65%29.89 "HgN/A
6:50 AM72 °FPassing clouds.10 mph65%29.89 "HgN/A
6:20 AM72 °FPassing clouds.10 mph65%29.89 "HgN/A
5:50 AM72 °FPassing clouds.12 mph65%29.86 "HgN/A
5:20 AM72 °FPassing clouds.14 mph65%29.86 "HgN/A
Weather by CustomWeather, © 2014

See weather overviewHow to use our weather pages